DW9005 Weather Reports


time (UTC)temp
C
wind
direction
speed
KPH
gust
KPH
rain 1hr
cm
rain 24hr
cm
rain mn
cm
humidity
%
barometer
mb
20260831150017 28 0.0 0.0 0.00 0.00 0.00 80 1020.5
20260831144502 28 0.0 0.0 0.00 0.00 0.00 83 1020.5
20260831143100 28 0.0 0.0 0.00 0.00 0.00 84 1020.5
20260831141607 27 0.0 0.0 0.00 0.00 0.00 86 1020.5
20260831140053 26 0.0 0.0 0.00 0.00 0.00 88 1020.5
20260831134551 26 0.0 0.0 0.00 0.00 0.00 91 1020.6
20260831133045 25 0.0 0.0 0.00 0.00 0.00 93 1020.6
20260831131542 24 0.0 0.0 0.00 0.00 0.00 94 1020.6
20260831130041 23 0.0 0.0 0.00 0.00 0.00 95 1020.7
20260831124520 22 0.0 0.0 0.00 0.00 0.00 95 1020.4
20260831123017 22 0.0 0.0 0.00 0.00 0.00 95 1020.3
20260831121558 22 0.0 0.0 0.00 0.00 0.00 95 1020.0
20260831120129 21 0.0 0.0 0.00 0.00 0.00 95 1019.7
20260831114541 21 0.0 0.0 0.00 0.00 0.00 95 1019.7
20260831113044 21 0.0 0.0 0.00 0.00 0.00 95 1019.4
20260831111518 21 0.0 0.0 0.00 0.00 0.00 95 1019.2
20260831110015 22 0.0 0.0 0.00 0.00 0.00 95 1019.1
20260831104605 22 0.0 0.0 0.00 0.00 0.00 95 1018.9
20260831103057 22 0.0 0.0 0.00 0.00 0.00 95 1019.0
20260831101540 22 0.0 0.0 0.00 0.00 0.00 95 1019.0
20260831100038 22 0.0 0.0 0.00 0.00 0.00 95 1018.8
20260831094520 22 0.0 0.0 0.00 0.00 0.00 95 1018.8
20260831093018 22 0.0 0.0 0.00 0.00 0.00 95 1018.7
20260831091606 22 0.0 0.0 0.00 0.00 0.00 95 1018.5
20260831090104 22 0.0 0.0 0.00 0.00 0.00 95 1018.4
20260831084553 22 0.0 0.0 0.00 0.00 0.00 95 1018.4
20260831083037 22 0.0 0.0 0.00 0.00 0.00 94 1018.1
20260831081522 22 0.0 0.0 0.00 0.00 0.00 94 1018.0
20260831080019 22 0.0 0.0 0.00 0.00 0.00 94 1018.1
20260831074559 23 0.0 0.0 0.00 0.00 0.00 94 1017.9
20260831073059 23 0.0 0.0 0.00 0.00 0.00 94 1018.0
20260831071539 23 0.0 0.0 0.00 0.00 0.00 94 1018.1
20260831070046 23 0.0 0.0 0.00 0.00 0.00 94 1018.0
20260831064521 23 0.0 0.0 0.00 0.00 0.00 94 1018.1
20260831063020 23 0.0 0.0 0.00 0.00 0.00 94 1018.1
20260831061503 23 0.0 0.0 0.00 0.00 0.00 94 1018.2
20260831060003 23 0.0 0.0 0.00 0.00 0.00 94 1018.2
20260831054546 23 0.0 0.0 0.00 0.00 0.00 94 1018.2
20260831053058 23 0.0 0.0 0.00 0.00 0.00 94 1018.2
20260831051534 23 0.0 0.0 0.00 0.00 0.00 93 1018.3
20260831050025 23 0.0 0.0 0.00 0.00 0.00 93 1018.4
20260831044509 23 0.0 0.0 0.00 0.00 0.00 93 1018.3
20260831043008 23 0.0 0.0 0.00 0.00 0.00 93 1018.4
20260831041550 24 0.0 0.0 0.00 0.00 0.00 93 1018.4
20260831040050 24 0.0 0.0 0.00 0.00 0.00 93 1018.3
20260831034531 24 0.0 0.0 0.00 0.00 0.00 92 1018.5
20260831033055 24 0.0 0.0 0.00 0.00 0.00 92 1018.4
20260831031515 25 0.0 0.0 0.00 0.00 0.00 92 1018.5
20260831030012 25 0.0 0.0 0.00 0.00 0.00 92 1018.2
20260831024600 25 0.0 0.0 0.00 0.00 0.00 91 1018.2
20260831023058 25 0.0 0.0 0.00 0.00 0.00 90 1018.3
20260831021558 25 0.0 0.0 0.00 0.00 0.00 90 1018.3
20260831020110 25 0.0 0.0 0.00 0.00 0.00 89 1018.0
20260831014556 25 0.0 0.0 0.00 0.00 0.00 88 1017.9
20260831013100 26 0.0 0.0 0.00 0.00 0.00 87 1017.7
20260831011556 26 0.0 0.0 0.00 0.00 0.00 85 1017.6
20260831010055 26 0.0 0.0 0.00 0.00 0.00 84 1017.5
20260831004538 27 0.0 0.0 0.00 0.00 0.00 82 1017.5
20260831003039 27 0.0 0.0 0.00 0.00 0.00 80 1017.5
20260831001519 28 0.0 0.0 0.00 0.00 0.00 77 1017.3
20260831000020 30 0.0 0.0 0.00 0.00 0.00 74 1017.3
20260830234600 30 0.0 0.0 0.00 0.00 0.00 69 1017.2
20260830233100 31 0.0 0.0 0.00 0.00 0.00 66 1017.3
20260830231542 32 0.0 0.0 0.00 0.00 0.00 62 1017.2
20260830230041 32 0.0 0.0 0.00 0.00 0.00 64 1017.1
20260830224524 32 0.0 0.0 0.00 0.00 0.00 62 1017.0
20260830223023 32 0.0 0.0 0.00 0.00 0.00 61 1017.0
20260830221507 32 0.0 0.0 0.00 0.00 0.00 61 1017.0
20260830220004 31 0.0 0.0 0.00 0.00 0.00 63 1017.1
20260830214547 32 0.0 0.0 0.00 0.00 0.00 63 1017.2
20260830213045 32 0.0 0.0 0.00 0.00 0.00 62 1017.3
20260830211525 32 0.0 0.0 0.00 0.00 0.00 62 1017.3
20260830210024 30 0.0 0.0 0.00 0.00 0.00 67 1017.4
20260830204505 31 0.0 0.0 0.00 0.00 0.00 69 1017.8
20260830203003 31 0.0 0.0 0.00 0.00 0.00 65 1017.8
20260830201545 31 0.0 0.0 0.00 0.00 0.00 67 1017.8
20260830200043 31 0.0 0.0 0.00 0.00 0.00 64 1018.1
20260830194525 31 0.0 0.0 0.00 0.00 0.00 63 1018.1
20260830193023 31 0.0 0.0 0.00 0.00 0.00 68 1018.4
20260830191510 31 0.0 0.0 0.00 0.00 0.00 64 1018.4
20260830190002 31 0.0 0.0 0.00 0.00 0.00 66 1018.6
20260830184544 31 0.0 0.0 0.00 0.00 0.00 65 1018.9
20260830183043 31 0.0 0.0 0.00 0.00 0.00 71 1019.0
20260830181530 30 0.0 0.0 0.00 0.00 0.00 69 1019.4
20260830180030 30 0.0 0.0 0.00 0.00 0.00 70 1019.5
20260830174529 30 0.0 0.0 0.00 0.00 0.00 70 1019.5
20260830173024 30 0.0 0.0 0.00 0.00 0.00 72 1019.7
20260830171523 30 0.0 0.0 0.00 0.00 0.00 75 1020.0
20260830170037 30 0.0 0.0 0.00 0.00 0.00 73 1020.2
20260830164520 29 0.0 0.0 0.00 0.00 0.00 73 1020.4
20260830163018 29 0.0 0.0 0.00 0.00 0.00 76 1020.6
20260830161516 28 0.0 0.0 0.00 0.00 0.00 78 1020.8
20260830160106 28 0.0 0.0 0.00 0.00 0.00 77 1020.9
20260830154556 28 0.0 0.0 0.00 0.00 0.00 79 1020.9
20260830153041 28 0.0 0.0 0.00 0.00 0.00 80 1020.8
20260830151534 27 0.0 0.0 0.00 0.00 0.00 83 1020.8